Tracking 30685 objects as of 18-Jun-2025
HD Live streaming from Space Station
objects crossing your sky now

NOAA 16 DEB

Track NOAA 16 DEB now!
10-day predictions


NORAD ID: 41509
Int'l Code: 2000-055MH
Perigee: 793.3 km
Apogee: 814.1 km
Inclination: 98.8 °
Period: 100.8 minutes
Semi major axis: 7174 km
RCS: Unknown
Launch date: September 21, 2000
Source: United States (US)
Launch site: AIR FORCE WESTERN TEST RANGE (AFWTR)

Note: This is SATELLITE DEBRIS
Your satellite tracking list
Your tracking list is empty




NASA's NSSDC Master Catalog

Two Line Element Set (TLE):
1 41509U 00055MH  25168.46863775  .00003196  00000-0  12908-2 0  9998
2 41509  98.7652 260.7611 0014507 322.8393  37.1783 14.28551317477642
Source of the keplerian elements: AFSPC